Weather in Miropol'ye

Russia / Smolensk Oblast     55°23′38″N   32°56′04″E
temp.,
°C
wind,
m/s
gust,
m/s
humid.,
%
clouds,
%
prec.,
mm/h
press.,
hPa
HPBL,
m
11 may, tue
tue1100:00+7ese227590 0.0 102724
03:00+6e227798 0.0 102830
06:00+6e237878 0.0 102862
09:00+12ene3556100 0.0 1028440
12:00+16e464247 0.0 1026896
15:00+18e454113 0.0 10251101
18:00+17e46565 0.0 1025805
21:00+11e38806 0.0 1025135
12 may, wed
wed1200:00+10e39910 0.0 1025159
03:00+9ese23976 0.0 102563
06:00+9se27965 0.0 1026249
09:00+13sse35640 0.0 1026745
12:00+16ese354761 0.0 10241352
15:00+17ene244541 0.0 10221215
18:00+13ene4888100 1.1 1019379
21:00+13ene41190100 2.7 1016605
13 may, thu
thu1300:00+8sse41196100 1.4 1017571
03:00+6ese379818 1.4 1018207
06:00+7e5159420 0.0 1017514
09:00+10ese61386100 0.1 1016851
12:00+14se61063100 0.2 10151621
15:00+14se587046 1.2 10141242
18:00+15s466151 0.3 10131165
21:00+9sse228079 0.4 101415
14 may, fri
fri1400:00+8se248474 0.0 101473
03:00+7se36915 0.0 1015113
06:00+8ese3987100 0.0 1015213
09:00+13se4971100 0.0 1014475
12:00+18se5862100 0.0 10121098
15:00+17ese4879100 1.3 1011778
18:00+18se48819 2.1 1008724
21:00+14s22945 3.8 100829
15 may, sat
sat1500:00+12s22965 0.0 100826
03:00+11sse229740 0.0 100827
06:00+12sse23978 0.0 100882
09:00+17se248597 0.8 1007269
12:00+19s4669100 1.4 10061184
15:00+18s467799 4.6 1006888
18:00+17sw478134 0.6 1005804
21:00+13wsw379751 1.7 1006219